Powrót do katalogu

PSLV R/B

AktywnyHEO
NORAD 47257·ROCKET BODY·🇮🇳 India

Wystrzelony Dec 17, 2020 z Satish Dhawan Space Centre

Loading…

Następne Przeloty (najbliższe 24 godziny)

TLE

ŚwieżeSource: Space-Track

Epoka: Sep 14, 2026, 12:42 UTC

1 47257U 20099B   26257.52939741  .00164346  19101-6  14648-2 0  9994
2 47257  17.8132  92.8515 5330682  93.1997 326.1420  5.22468906 91228

Śledź PSLV R/B w czasie rzeczywistym z AllMySat

Download on the App Store